EW3370 Weather Reports


Display with metric or nautical units.
time (UTC)temp
F
wind
direction
speed
MPH
gust
MPH
rain 1hr
in
rain 24hr
in
rain mn
in
humidity
%
barometer
mb
20260504050551 63 270 2.0 4.0 0.00 0.02 0.02 77 1014.6
20260504045532 63 285 1.0 5.0 0.00 0.02 0.02 76 1014.5
20260504045038 63 290 2.0 5.0 0.00 0.02 0.02 77 1014.6
20260504044523 63 267 0.0 5.0 0.00 0.02 0.02 77 1014.5
20260504044029 63 265 2.0 5.0 0.00 0.02 0.02 77 1014.5
20260504043555 63 273 2.0 4.0 0.00 0.02 0.02 77 1014.2
20260504043101 63 278 2.0 3.0 0.00 0.02 0.02 77 1014.1
20260504042523 63 283 1.0 6.0 0.00 0.02 0.02 77 1014.1
20260504042048 63 275 2.0 6.0 0.00 0.02 0.02 76 1014.1
20260504041530 63 281 3.0 6.0 0.00 0.02 0.02 76 1014.1
20260504041035 63 276 2.0 6.0 0.00 0.02 0.02 75 1014.1
20260504040522 63 285 3.0 6.0 0.00 0.02 0.02 75 1014.2
20260504040049 64 273 3.0 6.0 0.00 0.02 0.02 75 1014.2
20260504035539 64 304 2.0 6.0 0.00 0.02 0.02 75 1014.1
20260504035022 63 238 2.0 5.0 0.00 0.02 0.02 74 1014.0
20260504034525 63 271 3.0 5.0 0.00 0.02 0.02 74 1014.1
20260504034033 63 274 2.0 5.0 0.00 0.02 0.02 73 1014.1
20260504033538 64 254 2.0 5.0 0.00 0.02 0.02 73 1014.1
20260504033023 64 253 2.0 5.0 0.00 0.02 0.02 73 1014.0
20260504032526 64 274 1.0 4.0 0.00 0.02 0.02 73 1014.0
20260504032031 64 273 2.0 5.0 0.00 0.02 0.02 72 1013.9
20260504031537 64 303 2.0 5.0 0.00 0.02 0.02 72 1013.9
20260504031023 64 250 2.0 4.0 0.00 0.02 0.02 72 1013.8
20260504030519 64 257 2.0 4.0 0.00 0.02 0.02 72 1013.8
20260504030049 64 257 3.0 4.0 0.00 0.02 0.02 71 1013.5
20260504025536 64 292 2.0 5.0 0.00 0.02 0.02 71 1013.5
20260504025042 64 261 2.0 7.0 0.00 0.02 0.02 71 1013.5
20260504024528 64 295 3.0 7.0 0.00 0.02 0.02 71 1013.5
20260504024035 64 291 3.0 7.0 0.00 0.02 0.02 71 1013.4
20260504023540 64 261 3.0 7.0 0.00 0.02 0.02 71 1013.4
20260504023021 64 295 3.0 7.0 0.00 0.02 0.02 70 1013.4
20260504022523 64 333 3.0 7.0 0.00 0.02 0.02 70 1013.5
20260504022024 64 282 3.0 9.0 0.00 0.02 0.02 70 1013.6
20260504021524 64 244 2.0 9.0 0.00 0.02 0.02 70 1013.6
20260504021027 64 325 4.0 9.0 0.00 0.02 0.02 70 1013.6
20260504020532 64 310 4.0 7.0 0.00 0.02 0.02 70 1013.5
20260504020031 64 302 3.0 8.0 0.00 0.02 0.02 69 1013.4
20260504015558 64 294 3.0 8.0 0.00 0.02 0.02 69 1013.5
20260504015019 65 295 4.0 8.0 0.00 0.02 0.02 69 1013.4
20260504014529 65 258 4.0 8.0 0.00 0.02 0.02 68 1013.2
20260504014034 65 276 4.0 8.0 0.00 0.02 0.02 68 1013.3
20260504013541 65 262 4.0 7.0 0.00 0.02 0.02 68 1013.3
20260504013051 65 265 3.0 7.0 0.00 0.02 0.02 69 1013.3
20260504012558 65 325 4.0 7.0 0.00 0.02 0.02 67 1013.1
20260504012019 65 306 4.0 9.0 0.00 0.02 0.02 67 1013.0
20260504011534 65 286 3.0 9.0 0.00 0.02 0.02 67 1013.1
20260504011040 66 281 3.0 8.0 0.00 0.02 0.02 67 1013.1
20260504010523 66 300 3.0 8.0 0.00 0.02 0.02 67 1013.0
20260504010025 66 229 4.0 9.0 0.00 0.02 0.02 67 1013.0
20260504005526 66 270 5.0 9.0 0.00 0.02 0.02 66 1013.0
20260504005035 66 288 4.0 8.0 0.00 0.02 0.02 66 1012.9
20260504004537 66 269 4.0 8.0 0.00 0.02 0.02 66 1012.8
20260504004019 66 315 3.0 9.0 0.00 0.02 0.02 67 1012.8
20260504003528 66 311 5.0 10.0 0.00 0.02 0.02 66 1012.9
20260504003027 66 279 4.0 10.0 0.00 0.02 0.02 66 1012.7
20260504002551 66 317 3.0 9.0 0.00 0.02 0.02 65 1012.8
20260504002033 67 242 5.0 9.0 0.00 0.02 0.02 64 1012.9
20260504001539 67 317 4.0 7.0 0.00 0.02 0.02 64 1012.8
20260504001020 67 287 2.0 8.0 0.00 0.02 0.02 64 1012.8
20260504000547 68 290 4.0 8.0 0.00 0.02 0.02 63 1012.6
20260504000033 68 261 4.0 8.0 0.00 0.02 0.02 63 1012.5
20260503235520 68 273 4.0 8.0 0.00 0.02 0.02 63 1012.5
20260503235024 68 319 4.0 8.0 0.00 0.02 0.02 61 1012.5
20260503234528 68 319 4.0 8.0 0.00 0.02 0.02 61 1012.4
20260503234032 68 293 4.0 8.0 0.00 0.02 0.02 61 1012.4
20260503233535 68 303 5.0 9.0 0.00 0.02 0.02 61 1012.1
20260503233021 68 275 5.0 9.0 0.00 0.02 0.02 61 1012.3
20260503232527 69 300 5.0 10.0 0.00 0.02 0.02 59 1012.4
20260503232028 69 329 6.0 10.0 0.00 0.02 0.02 58 1012.4
20260503231530 69 313 4.0 11.0 0.00 0.02 0.02 58 1012.5
20260503231017 70 5 5.0 11.0 0.00 0.02 0.02 56 1012.6
20260503230522 70 251 4.0 10.0 0.00 0.02 0.02 56 1012.8
20260503230029 71 281 4.0 9.0 0.00 0.02 0.02 55 1012.9
20260503225538 72 289 4.0 10.0 0.00 0.02 0.02 55 1012.8
20260503225023 72 346 5.0 10.0 0.00 0.02 0.02 55 1012.8
20260503224527 72 244 5.0 10.0 0.00 0.02 0.02 54 1012.8
20260503224033 72 318 5.0 10.0 0.00 0.02 0.02 54 1012.8
20260503223523 72 298 5.0 10.0 0.00 0.02 0.02 53 1012.8
20260503223029 73 290 4.0 8.0 0.00 0.02 0.02 52 1012.8
20260503222530 73 279 4.0 8.0 0.00 0.02 0.02 54 1012.8
20260503222035 73 315 4.0 9.0 0.00 0.02 0.02 54 1013.0
20260503221521 72 271 4.0 9.0 0.00 0.02 0.02 54 1013.0
20260503221028 72 296 3.0 8.0 0.00 0.02 0.02 55 1013.0
20260503220529 72 263 4.0 9.0 0.00 0.02 0.02 55 1013.0
20260503220032 72 276 4.0 9.0 0.00 0.02 0.02 54 1013.0
20260503215536 72 267 5.0 9.0 0.00 0.02 0.02 55 1013.1
20260503215021 72 257 3.0 9.0 0.00 0.02 0.02 56 1013.2
20260503214525 72 320 4.0 9.0 0.00 0.02 0.02 56 1013.3
20260503214026 71 305 4.0 8.0 0.00 0.02 0.02 56 1013.2
20260503213551 72 288 4.0 8.0 0.00 0.02 0.02 56 1013.2
20260503213059 71 277 3.0 8.0 0.00 0.02 0.02 58 1013.3
20260503212520 71 276 5.0 8.0 0.00 0.02 0.02 57 1013.4
20260503212046 71 318 5.0 9.0 0.00 0.02 0.02 58 1013.4
20260503211529 71 252 3.0 11.0 0.00 0.02 0.02 59 1013.3
20260503211053 71 261 5.0 11.0 0.00 0.02 0.02 59 1013.3
20260503210540 71 239 2.0 10.0 0.00 0.02 0.02 60 1013.4
20260503210019 70 333 5.0 10.0 0.00 0.02 0.02 60 1013.4
20260503205526 70 290 4.0 8.0 0.00 0.02 0.02 61 1013.4
20260503205033 71 287 4.0 8.0 0.00 0.02 0.02 60 1013.5
20260503204539 70 323 5.0 9.0 0.00 0.02 0.02 61 1013.5
20260503204023 70 325 5.0 10.0 0.00 0.02 0.02 61 1013.5
20260503203526 70 264 5.0 10.0 0.00 0.02 0.02 61 1013.7
20260503203028 70 290 5.0 10.0 0.00 0.02 0.02 64 1013.7
20260503202531 69 327 5.0 10.0 0.00 0.02 0.02 63 1013.8
20260503202038 70 292 3.0 11.0 0.00 0.02 0.02 64 1013.7
20260503201523 69 317 5.0 11.0 0.00 0.02 0.02 64 1013.8
20260503201022 69 307 5.0 10.0 0.00 0.02 0.02 65 1013.8
20260503200522 68 269 5.0 10.0 0.00 0.02 0.02 65 1013.8
20260503200029 68 313 6.0 10.0 0.00 0.02 0.02 64 1013.9
20260503195554 68 278 5.0 10.0 0.00 0.02 0.02 64 1013.9
20260503195100 69 293 5.0 10.0 0.00 0.02 0.02 65 1013.9
20260503194519 69 342 5.0 10.0 0.00 0.02 0.02 64 1013.9
20260503194021 69 226 5.0 10.0 0.00 0.02 0.02 64 1014.0
20260503193524 69 270 4.0 11.0 0.00 0.02 0.02 64 1014.0
20260503193027 69 326 4.0 11.0 0.00 0.02 0.02 65 1014.0
20260503192537 69 277 5.0 11.0 0.00 0.02 0.02 64 1014.0
20260503192040 69 311 5.0 11.0 0.00 0.02 0.02 64 1014.1
20260503191525 69 339 6.0 11.0 0.00 0.02 0.02 64 1014.0
20260503191028 69 293 4.0 11.0 0.00 0.02 0.02 64 1014.0
20260503190530 68 349 5.0 8.0 0.00 0.02 0.02 65 1014.0
20260503190036 68 321 4.0 10.0 0.00 0.02 0.02 66 1014.1
20260503185600 68 341 6.0 10.0 0.00 0.02 0.02 66 1014.1
20260503185023 68 326 4.0 11.0 0.00 0.02 0.02 66 1014.2
20260503184531 68 300 5.0 11.0 0.00 0.02 0.02 68 1014.2
20260503184027 68 322 5.0 11.0 0.00 0.02 0.02 67 1014.1
20260503183534 68 310 4.0 11.0 0.00 0.02 0.02 68 1014.1
20260503183040 68 19 6.0 11.0 0.00 0.02 0.02 68 1014.2
20260503182545 68 331 4.0 9.0 0.00 0.02 0.02 68 1014.1
20260503182026 68 324 3.0 10.0 0.00 0.02 0.02 68 1014.2
20260503181534 68 336 5.0 10.0 0.00 0.02 0.02 67 1014.2
20260503181018 68 345 3.0 7.0 0.00 0.02 0.02 69 1014.2
20260503180524 67 311 3.0 8.0 0.00 0.02 0.02 70 1014.2
20260503180030 67 312 3.0 8.0 0.00 0.02 0.02 69 1014.2
20260503175537 67 315 3.0 7.0 0.00 0.02 0.02 70 1014.1
20260503175017 66 307 2.0 9.0 0.00 0.02 0.02 72 1014.2
20260503174521 66 328 5.0 9.0 0.00 0.02 0.02 72 1014.2
20260503174024 66 271 4.0 9.0 0.00 0.02 0.02 74 1014.2
20260503173527 66 328 4.0 9.0 0.00 0.02 0.02 74 1014.1
20260503173022 66 281 4.0 9.0 0.00 0.02 0.02 74 1014.1
20260503172526 66 284 3.0 9.0 0.00 0.02 0.02 75 1014.2
20260503172031 66 313 4.0 9.0 0.00 0.02 0.02 76 1014.1
20260503171534 66 326 3.0 8.0 0.00 0.02 0.02 75 1014.1
20260503171038 66 272 4.0 8.0 0.00 0.02 0.02 76 1014.1
20260503170522 66 325 4.0 8.0 0.00 0.02 0.02 76 1014.0
20260503150527 61 317 0.0 1.0 0.00 0.01 0.01 91 1013.9
20260503131023 61 287 1.0 4.0 0.00 0.00 0.00 90 1012.8
20260503130549 61 319 1.0 4.0 0.00 0.00 0.00 90 1012.7
20260503110521 61 269 4.0 7.0 0.00 0.00 0.00 87 1012.0
20260503081544 62 224 0.0 2.0 0.00 0.00 0.00 85 1012.8
20260503081052 62 224 0.0 1.0 0.00 0.00 0.00 85 1012.8
20260503080533 62 224 0.0 0.0 0.00 0.00 0.00 85 1012.9
20260503072524 62 224 0.0 2.0 0.00 0.00 0.00 85 1013.2
20260503072049 62 224 0.0 2.0 0.00 0.00 0.00 85 1013.2
20260503071526 62 224 0.0 2.0 0.00 0.00 0.00 85 1013.2
20260503071029 62 224 0.0 1.0 0.00 0.00 0.00 85 1013.1
20260503070531 62 224 0.0 1.0 0.00 0.00 0.00 85 1013.1